Time,TemperatureF,DewpointF,PressureIn,WindDirection,WindDirectionDegrees,WindSpeedMPH,WindSpeedGustMPH,Humidity,HourlyPrecipIn,Conditions,Clouds,dailyrainin,SoftwareType,DateUTC
2013-07-03 00:00:00,71.3,69.8,30.12,South,179,3.0,3.0,95,0.00,RA,,0.00,WeatherDisplay:10.37,2013-07-03 04:00:00,
2013-07-03 00:01:00,71.3,69.8,30.12,South,178,2.3,2.5,95,0.00,RA,,0.00,WeatherDisplay:10.37,2013-07-03 04:01:00,
2013-07-03 00:03:00,71.3,69.8,30.12,South,178,1.0,1.0,95,0.00,RA,,0.00,WeatherDisplay:10.37,2013-07-03 04:03:00,
2013-07-03 00:04:00,71.3,69.8,30.12,South,178,2.3,2.3,95,0.00,RA,,0.00,WeatherDisplay:10.37,2013-07-03 04:04:00,
2013-07-03 00:09:00,71.3,69.8,30.12,South,178,0.0,0.0,95,0.00,RA,,0.00,WeatherDisplay:10.37,2013-07-03 04:09:00,
2013-07-03 00:14:00,71.3,69.8,30.12,South,178,3.5,3.5,95,0.00,CLR,,0.00,WeatherDisplay:10.37,2013-07-03 04:14:00,
2013-07-03 00:19:00,71.3,69.8,30.12,South,178,0.0,0.0,95,0.00,CLR,,0.00,WeatherDisplay:10.37,2013-07-03 04:19:00,
2013-07-03 00:24:00,71.3,69.8,30.12,South,178,1.2,0.0,95,0.00,CLR,,0.00,WeatherDisplay:10.37,2013-07-03 04:24:00,
2013-07-03 00:29:00,71.3,69.8,30.12,South,184,2.3,0.0,95,0.00,CLR,,0.00,WeatherDisplay:10.37,2013-07-03 04:29:00,
2013-07-03 00:31:00,71.3,69.8,30.12,South,183,3.5,3.5,95,0.00,CLR,,0.00,WeatherDisplay:10.37,2013-07-03 04:31:00,
2013-07-03 00:32:00,71.3,69.8,30.12,South,183,1.2,0.0,95,0.00,CLR,,0.00,WeatherDisplay:10.37,2013-07-03 04:32:00,
2013-07-03 00:37:00,71.3,69.8,30.12,South,183,0.0,0.0,95,0.00,CLR,,0.00,WeatherDisplay:10.37,2013-07-03 04:37:00,
2013-07-03 00:42:00,71.3,69.8,30.12,South,179,0.0,0.0,95,0.00,CLR,,0.00,WeatherDisplay:10.37,2013-07-03 04:42:00,
2013-07-03 00:45:00,71.3,69.8,30.11,South,179,0.0,0.0,95,0.00,CLR,,0.00,WeatherDisplay:10.37,2013-07-03 04:45:00,
2013-07-03 00:46:00,71.3,69.8,30.11,South,179,0.0,0.0,95,0.00,CLR,,0.00,WeatherDisplay:10.37,2013-07-03 04:46:00,
2013-07-03 00:51:00,71.3,69.8,30.11,South,179,0.0,0.0,95,0.00,CLR,,0.00,WeatherDisplay:10.37,2013-07-03 04:51:00,
2013-07-03 00:53:00,71.3,69.8,30.11,South,179,1.2,0.0,95,0.00,CLR,,0.00,WeatherDisplay:10.37,2013-07-03 04:53:00,
2013-07-03 00:58:00,71.3,69.8,30.11,South,179,0.0,0.0,95,0.00,CLR,,0.00,WeatherDisplay:10.37,2013-07-03 04:58:00,
2013-07-03 01:03:00,71.3,69.8,30.11,South,179,0.0,0.0,95,0.00,CLR,,0.00,WeatherDisplay:10.37,2013-07-03 05:03:00,
2013-07-03 01:07:00,71.3,69.8,30.11,South,179,0.0,0.0,95,0.00,CLR,,0.00,WeatherDisplay:10.37,2013-07-03 05:07:00,
2013-07-03 01:12:00,71.4,69.9,30.11,WSW,238,2.3,2.3,95,0.00,CLR,,0.00,WeatherDisplay:10.37,2013-07-03 05:12:00,
2013-07-03 01:17:00,71.4,69.9,30.11,WSW,238,4.0,4.0,95,0.00,CLR,,0.00,WeatherDisplay:10.37,2013-07-03 05:17:00,
2013-07-03 01:19:00,71.4,69.9,30.11,WSW,242,3.5,3.5,95,0.00,CLR,,0.00,WeatherDisplay:10.37,2013-07-03 05:19:00,
2013-07-03 01:24:00,71.4,69.9,30.12,WSW,243,3.5,3.5,95,0.00,CLR,,0.00,WeatherDisplay:10.37,2013-07-03 05:24:00,
2013-07-03 01:29:00,71.5,70.0,30.11,WSW,242,0.0,0.0,95,0.00,CLR,,0.00,WeatherDisplay:10.37,2013-07-03 05:29:00,
2013-07-03 01:34:00,71.5,70.0,30.11,WSW,242,0.0,0.0,95,0.00,CLR,,0.00,WeatherDisplay:10.37,2013-07-03 05:34:00,
2013-07-03 01:39:00,71.4,69.9,30.11,SW,219,0.0,0.0,95,0.00,CLR,,0.00,WeatherDisplay:10.37,2013-07-03 05:39:00,
2013-07-03 01:44:00,71.4,69.9,30.11,SW,219,0.0,0.0,95,0.00,CLR,,0.00,WeatherDisplay:10.37,2013-07-03 05:44:00,
2013-07-03 01:49:00,71.4,69.9,30.11,SW,219,0.0,0.0,95,0.00,CLR,,0.00,WeatherDisplay:10.37,2013-07-03 05:49:00,
2013-07-03 01:54:00,71.4,69.9,30.11,SW,219,0.0,0.0,95,0.00,CLR,,0.00,WeatherDisplay:10.37,2013-07-03 05:54:00,
2013-07-03 01:57:00,71.4,69.9,30.11,SW,219,0.0,0.0,95,0.00,CLR,,0.00,WeatherDisplay:10.37,2013-07-03 05:57:00,
2013-07-03 01:58:00,71.4,69.9,30.11,SW,219,0.0,0.0,95,0.00,CLR,,0.00,WeatherDisplay:10.37,2013-07-03 05:58:00,
2013-07-03 02:02:00,71.4,69.9,30.11,SW,219,0.0,0.0,95,0.00,CLR,,0.00,WeatherDisplay:10.37,2013-07-03 06:02:00,
2013-07-03 02:07:00,71.4,69.9,30.11,SW,219,0.0,0.0,95,0.00,CLR,,0.00,WeatherDisplay:10.37,2013-07-03 06:07:00,
2013-07-03 02:13:00,71.4,69.9,30.11,SW,219,0.0,0.0,95,0.00,CLR,,0.00,WeatherDisplay:10.37,2013-07-03 06:13:00,
2013-07-03 02:15:00,71.4,69.9,30.11,SW,219,0.0,0.0,95,0.00,CLR,,0.00,WeatherDisplay:10.37,2013-07-03 06:15:00,
2013-07-03 02:16:00,71.4,69.9,30.11,SW,219,0.0,0.0,95,0.00,CLR,,0.00,WeatherDisplay:10.37,2013-07-03 06:16:00,
2013-07-03 02:19:00,71.5,70.0,30.11,SW,219,3.5,3.5,95,0.00,CLR,,0.00,WeatherDisplay:10.37,2013-07-03 06:19:00,
2013-07-03 02:22:00,71.5,70.0,30.11,SW,219,1.2,0.0,95,0.00,CLR,,0.00,WeatherDisplay:10.37,2013-07-03 06:22:00,
2013-07-03 02:24:00,71.5,70.0,30.11,SW,219,2.0,2.0,95,0.00,CLR,,0.00,WeatherDisplay:10.37,2013-07-03 06:24:00,
2013-07-03 02:26:00,71.5,70.3,30.11,SW,219,0.0,0.0,96,0.00,CLR,,0.00,WeatherDisplay:10.37,2013-07-03 06:26:00,
2013-07-03 02:31:00,71.5,70.3,30.11,SW,219,0.0,0.0,96,0.00,CLR,,0.00,WeatherDisplay:10.37,2013-07-03 06:31:00,
2013-07-03 02:34:00,71.5,70.3,30.10,SW,219,0.0,0.0,96,0.00,CLR,,0.00,WeatherDisplay:10.37,2013-07-03 06:34:00,
2013-07-03 02:41:00,71.5,70.3,30.10,SW,219,0.0,0.0,96,0.00,CLR,,0.00,WeatherDisplay:10.37,2013-07-03 06:41:00,
2013-07-03 02:43:00,71.5,70.3,30.10,SW,219,0.0,0.0,96,0.00,CLR,,0.00,WeatherDisplay:10.37,2013-07-03 06:43:00,
2013-07-03 02:49:00,71.5,70.3,30.11,SW,219,0.0,0.0,96,0.00,CLR,,0.00,WeatherDisplay:10.37,2013-07-03 06:49:00,
2013-07-03 02:54:00,71.5,70.3,30.11,SW,219,0.0,0.0,96,0.00,CLR,,0.00,WeatherDisplay:10.37,2013-07-03 06:54:00,
2013-07-03 02:55:00,71.5,70.3,30.11,SW,219,0.0,0.0,96,0.00,CLR,,0.00,WeatherDisplay:10.37,2013-07-03 06:55:00,
2013-07-03 03:00:00,71.5,70.3,30.11,SW,219,0.0,0.0,96,0.00,CLR,,0.00,WeatherDisplay:10.37,2013-07-03 07:00:00,
2013-07-03 03:05:00,71.4,70.2,30.11,SW,219,0.0,0.0,96,0.00,CLR,,0.00,WeatherDisplay:10.37,2013-07-03 07:05:00,
2013-07-03 03:10:00,71.5,70.3,30.11,SW,219,0.0,0.0,96,0.00,CLR,,0.00,WeatherDisplay:10.37,2013-07-03 07:10:00,
2013-07-03 03:16:00,71.4,70.2,30.11,SW,219,0.0,0.0,96,0.00,CLR,,0.00,WeatherDisplay:10.37,2013-07-03 07:16:00,
2013-07-03 03:22:00,71.4,70.2,30.11,SW,219,0.0,0.0,96,0.00,CLR,,0.00,WeatherDisplay:10.37,2013-07-03 07:22:00,
2013-07-03 03:28:00,71.4,70.2,30.10,SW,219,0.0,0.0,96,0.00,CLR,,0.00,WeatherDisplay:10.37,2013-07-03 07:28:00,
2013-07-03 03:33:00,71.4,70.2,30.11,SW,219,0.0,0.0,96,0.00,CLR,,0.00,WeatherDisplay:10.37,2013-07-03 07:33:00,
2013-07-03 03:38:00,71.4,70.2,30.11,SW,219,0.0,0.0,96,0.00,CLR,,0.00,WeatherDisplay:10.37,2013-07-03 07:38:00,
2013-07-03 03:43:00,71.4,70.2,30.11,SW,219,0.0,0.0,96,0.00,CLR,,0.00,WeatherDisplay:10.37,2013-07-03 07:43:00,
2013-07-03 03:48:00,71.5,70.3,30.10,SW,219,0.0,0.0,96,0.00,CLR,,0.00,WeatherDisplay:10.37,2013-07-03 07:48:00,
2013-07-03 03:51:00,71.5,70.3,30.10,SW,219,0.0,0.0,96,0.00,CLR,,0.00,WeatherDisplay:10.37,2013-07-03 07:51:00,
2013-07-03 03:57:00,71.5,70.3,30.10,SW,219,0.0,0.0,96,0.00,CLR,,0.00,WeatherDisplay:10.37,2013-07-03 07:57:00,
2013-07-03 04:01:00,71.5,70.3,30.11,SW,219,0.0,0.0,96,0.00,CLR,,0.00,WeatherDisplay:10.37,2013-07-03 08:01:00,
2013-07-03 04:06:00,71.5,70.3,30.10,SW,219,0.0,0.0,96,0.00,CLR,,0.00,WeatherDisplay:10.37,2013-07-03 08:06:00,
2013-07-03 04:09:00,71.5,70.3,30.11,SW,219,0.0,0.0,96,0.00,CLR,,0.00,WeatherDisplay:10.37,2013-07-03 08:09:00,
2013-07-03 04:14:00,71.5,70.3,30.11,SW,219,0.0,0.0,96,0.00,CLR,,0.00,WeatherDisplay:10.37,2013-07-03 08:14:00,
2013-07-03 04:18:00,71.5,70.3,30.11,SW,219,0.0,0.0,96,0.00,CLR,,0.00,WeatherDisplay:10.37,2013-07-03 08:18:00,
2013-07-03 04:24:00,71.5,70.3,30.11,SW,219,0.0,0.0,96,0.01,RA,,0.01,WeatherDisplay:10.37,2013-07-03 08:24:00,
2013-07-03 04:29:00,71.5,70.3,30.10,SW,219,0.0,0.0,96,0.01,RA,,0.01,WeatherDisplay:10.37,2013-07-03 08:29:00,
2013-07-03 04:35:00,71.5,70.3,30.11,SW,219,0.0,0.0,96,0.02,RA,,0.02,WeatherDisplay:10.37,2013-07-03 08:35:00,
2013-07-03 04:39:00,71.5,70.3,30.11,SW,219,0.0,0.0,96,0.05,RA,,0.06,WeatherDisplay:10.37,2013-07-03 08:39:00,
2013-07-03 04:45:00,71.4,70.2,30.11,SW,219,2.3,0.0,96,0.26,RA,,0.32,WeatherDisplay:10.37,2013-07-03 08:45:00,
2013-07-03 04:51:00,71.3,70.1,30.11,SW,225,3.5,0.0,96,0.51,RA,,0.54,WeatherDisplay:10.37,2013-07-03 08:51:00,
2013-07-03 04:54:00,71.1,69.9,30.11,SW,225,3.5,3.5,96,0.58,RA,,0.59,WeatherDisplay:10.37,2013-07-03 08:54:00,
2013-07-03 04:57:00,71.0,69.8,30.12,SW,225,2.3,0.0,96,0.62,RA,,0.63,WeatherDisplay:10.37,2013-07-03 08:57:00,
2013-07-03 05:02:00,70.8,69.6,30.12,SW,225,0.0,0.0,96,0.63,RA,,0.63,WeatherDisplay:10.37,2013-07-03 09:02:00,
2013-07-03 05:08:00,70.7,69.5,30.11,SW,225,2.0,2.0,96,0.65,RA,,0.66,WeatherDisplay:10.37,2013-07-03 09:08:00,
2013-07-03 05:13:00,70.6,69.4,30.12,SW,225,0.0,0.0,96,0.67,RA,,0.67,WeatherDisplay:10.37,2013-07-03 09:13:00,
2013-07-03 05:18:00,70.6,69.4,30.12,WSW,258,11.5,11.5,96,0.67,RA,,0.67,WeatherDisplay:10.37,2013-07-03 09:18:00,
2013-07-03 05:24:00,70.7,69.5,30.12,West,259,0.0,0.0,96,0.66,CLR,,0.67,WeatherDisplay:10.37,2013-07-03 09:24:00,
2013-07-03 05:30:00,70.7,69.5,30.12,West,259,0.0,0.0,96,0.66,CLR,,0.67,WeatherDisplay:10.37,2013-07-03 09:30:00,
2013-07-03 05:36:00,70.8,69.6,30.12,West,259,0.0,0.0,96,0.64,CLR,,0.67,WeatherDisplay:10.37,2013-07-03 09:36:00,
2013-07-03 05:41:00,70.8,69.6,30.13,West,259,0.0,0.0,96,0.60,CLR,,0.67,WeatherDisplay:10.37,2013-07-03 09:41:00,
2013-07-03 05:46:00,70.9,69.7,30.13,West,259,0.0,0.0,96,0.31,CLR,,0.67,WeatherDisplay:10.37,2013-07-03 09:46:00,
2013-07-03 05:49:00,70.9,69.7,30.13,West,259,0.0,0.0,96,0.19,CLR,,0.67,WeatherDisplay:10.37,2013-07-03 09:49:00,
2013-07-03 05:50:00,70.9,69.7,30.13,West,259,0.0,0.0,96,0.16,CLR,,0.67,WeatherDisplay:10.37,2013-07-03 09:50:00,
2013-07-03 05:56:00,71.0,69.8,30.13,West,259,0.0,0.0,96,0.06,CLR,,0.67,WeatherDisplay:10.37,2013-07-03 09:56:00,
2013-07-03 06:01:00,71.2,70.0,30.13,West,259,2.3,2.3,96,0.04,CLR,,0.67,WeatherDisplay:10.37,2013-07-03 10:01:00,
2013-07-03 06:04:00,71.2,70.0,30.13,West,259,3.5,3.5,96,0.03,CLR,,0.67,WeatherDisplay:10.37,2013-07-03 10:04:00,
2013-07-03 06:05:00,71.2,70.0,30.13,West,259,3.5,0.0,96,0.03,CLR,,0.67,WeatherDisplay:10.37,2013-07-03 10:05:00,
2013-07-03 06:10:00,71.3,70.1,30.14,West,259,0.0,0.0,96,0.00,CLR,,0.67,WeatherDisplay:10.37,2013-07-03 10:10:00,
2013-07-03 06:15:00,71.4,70.2,30.13,West,259,0.0,0.0,96,0.00,CLR,,0.67,WeatherDisplay:10.37,2013-07-03 10:15:00,
2013-07-03 06:20:00,71.5,70.3,30.14,West,259,0.0,0.0,96,0.00,CLR,,0.67,WeatherDisplay:10.37,2013-07-03 10:20:00,
2013-07-03 06:25:00,71.6,70.4,30.14,WSW,252,1.2,0.0,96,0.00,CLR,,0.67,WeatherDisplay:10.37,2013-07-03 10:25:00,
2013-07-03 06:31:00,71.6,70.4,30.14,WSW,252,0.0,0.0,96,0.00,CLR,,0.67,WeatherDisplay:10.37,2013-07-03 10:31:00,
2013-07-03 06:36:00,71.7,70.5,30.14,WSW,252,0.0,0.0,96,0.00,CLR,,0.67,WeatherDisplay:10.37,2013-07-03 10:36:00,
2013-07-03 06:41:00,71.7,70.5,30.14,WSW,252,0.0,0.0,96,0.00,CLR,,0.67,WeatherDisplay:10.37,2013-07-03 10:41:00,
2013-07-03 06:46:00,71.8,70.6,30.15,WSW,252,0.0,0.0,96,0.00,CLR,,0.67,WeatherDisplay:10.37,2013-07-03 10:46:00,
2013-07-03 06:50:00,71.7,70.5,30.15,WSW,252,0.0,0.0,96,0.00,CLR,,0.67,WeatherDisplay:10.37,2013-07-03 10:50:00,
2013-07-03 06:55:00,71.7,70.5,30.15,WSW,252,0.0,0.0,96,0.00,CLR,,0.67,WeatherDisplay:10.37,2013-07-03 10:55:00,
2013-07-03 06:58:00,71.7,70.5,30.15,WSW,252,0.0,0.0,96,0.00,CLR,,0.67,WeatherDisplay:10.37,2013-07-03 10:58:00,
2013-07-03 07:03:00,71.7,70.5,30.15,WSW,252,0.0,0.0,96,0.00,CLR,,0.67,WeatherDisplay:10.37,2013-07-03 11:03:00,
2013-07-03 07:08:00,71.7,70.5,30.15,WSW,252,0.0,0.0,96,0.00,CLR,,0.67,WeatherDisplay:10.37,2013-07-03 11:08:00,
2013-07-03 07:09:00,71.7,70.5,30.15,WSW,252,0.0,0.0,96,0.00,CLR,,0.67,WeatherDisplay:10.37,2013-07-03 11:09:00,
2013-07-03 07:14:00,71.7,70.5,30.15,WSW,252,0.0,0.0,96,0.00,CLR,,0.67,WeatherDisplay:10.37,2013-07-03 11:14:00,
2013-07-03 07:19:00,71.7,70.5,30.16,WSW,252,0.0,0.0,96,0.00,CLR,,0.67,WeatherDisplay:10.37,2013-07-03 11:19:00,
2013-07-03 07:20:00,71.7,70.5,30.16,WSW,252,0.0,0.0,96,0.00,CLR,,0.67,WeatherDisplay:10.37,2013-07-03 11:20:00,
2013-07-03 07:23:00,71.8,70.6,30.16,WSW,252,0.0,0.0,96,0.00,CLR,,0.67,WeatherDisplay:10.37,2013-07-03 11:23:00,
2013-07-03 07:25:00,71.7,70.5,30.16,WSW,252,0.0,0.0,96,0.00,CLR,,0.67,WeatherDisplay:10.37,2013-07-03 11:25:00,
2013-07-03 07:30:00,71.8,70.6,30.16,ESE,109,3.5,3.5,96,0.00,CLR,,0.67,WeatherDisplay:10.37,2013-07-03 11:30:00,
2013-07-03 07:35:00,71.8,70.6,30.16,ESE,109,0.0,0.0,96,0.01,RA,,0.68,WeatherDisplay:10.37,2013-07-03 11:35:00,
2013-07-03 07:40:00,71.8,70.6,30.17,ESE,109,0.0,0.0,96,0.01,RA,,0.68,WeatherDisplay:10.37,2013-07-03 11:40:00,
2013-07-03 07:45:00,71.9,70.7,30.17,ESE,109,0.0,0.0,96,0.01,,,0.68,WeatherDisplay:10.37,2013-07-03 11:45:00,
2013-07-03 07:50:00,71.9,70.7,30.17,ESE,109,0.0,0.0,96,0.02,RA,,0.69,WeatherDisplay:10.37,2013-07-03 11:50:00,
2013-07-03 07:56:00,71.9,70.7,30.17,South,169,4.6,4.6,96,0.02,RA,,0.69,WeatherDisplay:10.37,2013-07-03 11:56:00,
2013-07-03 07:59:00,71.9,70.7,30.17,South,169,0.0,0.0,96,0.03,RA,,0.70,WeatherDisplay:10.37,2013-07-03 11:59:00,
2013-07-03 08:02:00,71.9,70.7,30.17,South,169,0.0,0.0,96,0.03,RA,,0.70,WeatherDisplay:10.37,2013-07-03 12:02:00,
2013-07-03 08:07:00,71.9,70.7,30.17,South,169,0.0,0.0,96,0.03,RA,,0.70,WeatherDisplay:10.37,2013-07-03 12:07:00,
2013-07-03 08:12:00,71.9,70.7,30.17,SSE,168,1.0,1.0,96,0.03,CLR,,0.70,WeatherDisplay:10.37,2013-07-03 12:12:00,
2013-07-03 08:16:00,71.9,70.7,30.17,South,169,0.0,0.0,96,0.03,CLR,,0.70,WeatherDisplay:10.37,2013-07-03 12:16:00,
2013-07-03 08:20:00,71.9,70.7,30.17,South,169,0.0,0.0,96,0.03,CLR,,0.70,WeatherDisplay:10.37,2013-07-03 12:20:00,
2013-07-03 08:25:00,71.9,70.7,30.18,ESE,106,0.0,0.0,96,0.03,CLR,,0.70,WeatherDisplay:10.37,2013-07-03 12:25:00,
2013-07-03 08:31:00,71.8,70.6,30.18,ESE,106,0.0,0.0,96,0.03,CLR,,0.70,WeatherDisplay:10.37,2013-07-03 12:31:00,
2013-07-03 08:36:00,71.9,70.7,30.18,ESE,106,0.0,0.0,96,0.02,CLR,,0.70,WeatherDisplay:10.37,2013-07-03 12:36:00,
2013-07-03 08:41:00,72.0,70.8,30.18,NNE,17,0.0,0.0,96,0.02,CLR,,0.70,WeatherDisplay:10.37,2013-07-03 12:41:00,
2013-07-03 08:46:00,72.1,70.9,30.18,ESE,107,3.5,3.5,96,0.02,CLR,,0.70,WeatherDisplay:10.37,2013-07-03 12:46:00,
2013-07-03 08:52:00,72.1,70.9,30.18,ESE,108,0.0,0.0,96,0.01,CLR,,0.70,WeatherDisplay:10.37,2013-07-03 12:52:00,
2013-07-03 08:57:00,72.1,70.9,30.19,ESE,103,0.0,0.0,96,0.01,CLR,,0.70,WeatherDisplay:10.37,2013-07-03 12:57:00,
2013-07-03 09:03:00,72.1,70.9,30.19,SE,126,0.0,0.0,96,0.00,CLR,,0.70,WeatherDisplay:10.37,2013-07-03 13:03:00,
2013-07-03 09:08:00,72.2,71.0,30.18,SSE,149,0.0,0.0,96,0.00,CLR,,0.70,WeatherDisplay:10.37,2013-07-03 13:08:00,
2013-07-03 09:13:00,72.4,71.2,30.18,South,173,0.0,0.0,96,0.00,CLR,,0.70,WeatherDisplay:10.37,2013-07-03 13:13:00,
2013-07-03 09:19:00,72.6,71.4,30.18,SSW,205,0.0,0.0,96,0.00,CLR,,0.70,WeatherDisplay:10.37,2013-07-03 13:19:00,
2013-07-03 09:24:00,72.6,71.4,30.18,South,171,0.0,0.0,96,0.00,CLR,,0.70,WeatherDisplay:10.37,2013-07-03 13:24:00,
2013-07-03 09:25:00,72.6,71.4,30.18,SSW,207,0.0,0.0,96,0.00,CLR,,0.70,WeatherDisplay:10.37,2013-07-03 13:25:00,
2013-07-03 09:30:00,72.9,71.7,30.18,ESE,106,2.0,0.0,96,0.00,CLR,,0.70,WeatherDisplay:10.37,2013-07-03 13:30:00,
2013-07-03 09:37:00,73.1,71.9,30.18,South,180,1.2,0.0,96,0.00,CLR,,0.70,WeatherDisplay:10.37,2013-07-03 13:37:00,
2013-07-03 09:42:00,73.2,72.0,30.18,SSW,192,3.0,3.0,96,0.00,CLR,,0.70,WeatherDisplay:10.37,2013-07-03 13:42:00,
2013-07-03 09:47:00,73.3,72.1,30.18,ESE,117,1.2,1.2,96,0.00,CLR,,0.70,WeatherDisplay:10.37,2013-07-03 13:47:00,
2013-07-03 09:52:00,73.4,72.2,30.17,ENE,61,2.3,2.3,96,0.00,CLR,,0.70,WeatherDisplay:10.37,2013-07-03 13:52:00,
2013-07-03 09:57:00,73.5,72.3,30.17,East,90,0.0,0.0,96,0.00,CLR,,0.70,WeatherDisplay:10.37,2013-07-03 13:57:00,
2013-07-03 10:03:00,73.8,72.6,30.17,East,93,3.5,3.5,96,0.00,CLR,,0.70,WeatherDisplay:10.37,2013-07-03 14:03:00,
2013-07-03 10:07:00,73.8,72.6,30.17,SE,130,1.2,0.0,96,0.00,CLR,,0.70,WeatherDisplay:10.37,2013-07-03 14:07:00,
2013-07-03 10:09:00,73.9,72.7,30.17,SE,141,0.0,0.0,96,0.00,CLR,,0.70,WeatherDisplay:10.37,2013-07-03 14:09:00,
2013-07-03 10:14:00,74.0,72.8,30.17,ESE,108,3.5,3.5,96,0.00,CLR,,0.70,WeatherDisplay:10.37,2013-07-03 14:14:00,
2013-07-03 10:18:00,74.1,72.9,30.17,SE,139,0.0,0.0,96,0.00,CLR,,0.70,WeatherDisplay:10.37,2013-07-03 14:18:00,
2013-07-03 10:23:00,74.4,73.2,30.17,South,178,2.3,2.3,96,0.00,CLR,,0.70,WeatherDisplay:10.37,2013-07-03 14:23:00,
2013-07-03 10:29:00,74.9,73.4,30.18,SW,233,5.8,5.8,95,0.00,CLR,,0.70,WeatherDisplay:10.37,2013-07-03 14:29:00,
2013-07-03 10:34:00,75.3,73.5,30.18,SSW,209,5.0,5.0,94,0.00,CLR,,0.70,WeatherDisplay:10.37,2013-07-03 14:34:00,
2013-07-03 10:37:00,75.4,73.6,30.18,SSE,148,0.0,0.0,94,0.00,CLR,,0.70,WeatherDisplay:10.37,2013-07-03 14:37:00,
2013-07-03 10:39:00,75.4,73.2,30.18,SW,232,3.5,3.5,93,0.00,CLR,,0.70,WeatherDisplay:10.37,2013-07-03 14:39:00,
2013-07-03 10:43:00,75.6,73.1,30.18,SE,127,3.5,3.5,92,0.00,CLR,,0.70,WeatherDisplay:10.37,2013-07-03 14:43:00,
2013-07-03 10:48:00,75.8,73.0,30.18,SE,146,3.5,3.5,91,0.00,CLR,,0.70,WeatherDisplay:10.37,2013-07-03 14:48:00,
2013-07-03 10:51:00,75.9,73.1,30.18,South,186,5.0,5.0,91,0.00,CLR,,0.70,WeatherDisplay:10.37,2013-07-03 14:51:00,
2013-07-03 10:57:00,76.4,73.6,30.18,SSE,167,4.6,4.6,91,0.00,CLR,,0.70,WeatherDisplay:10.37,2013-07-03 14:57:00,
2013-07-03 10:58:00,76.5,73.3,30.18,SE,128,6.9,6.9,90,0.00,CLR,,0.70,WeatherDisplay:10.37,2013-07-03 14:58:00,
2013-07-03 11:03:00,76.5,73.0,30.18,SSW,194,2.3,2.3,89,0.00,CLR,,0.70,WeatherDisplay:10.37,2013-07-03 15:03:00,
2013-07-03 11:04:00,76.5,72.7,30.18,South,186,6.9,6.9,88,0.00,CLR,,0.70,WeatherDisplay:10.37,2013-07-03 15:04:00,
2013-07-03 11:09:00,76.5,72.7,30.18,SSE,159,4.6,4.6,88,0.00,CLR,,0.70,WeatherDisplay:10.37,2013-07-03 15:09:00,
2013-07-03 11:15:00,76.6,72.8,30.18,South,175,2.3,2.7,88,0.00,CLR,,0.70,WeatherDisplay:10.37,2013-07-03 15:15:00,
2013-07-03 11:21:00,76.7,72.9,30.19,South,173,3.5,3.5,88,0.00,CLR,,0.70,WeatherDisplay:10.37,2013-07-03 15:21:00,
2013-07-03 11:26:00,76.8,73.0,30.19,SE,126,5.8,5.8,88,0.00,CLR,,0.70,WeatherDisplay:10.37,2013-07-03 15:26:00,
2013-07-03 11:29:00,76.8,73.0,30.19,South,169,3.5,3.5,88,0.00,CLR,,0.70,WeatherDisplay:10.37,2013-07-03 15:29:00,
2013-07-03 11:34:00,76.9,73.1,30.19,SE,125,1.0,1.0,88,0.00,CLR,,0.70,WeatherDisplay:10.37,2013-07-03 15:34:00,
2013-07-03 11:39:00,76.8,73.0,30.19,South,170,7.0,7.0,88,0.00,CLR,,0.70,WeatherDisplay:10.37,2013-07-03 15:39:00,
2013-07-03 11:40:00,76.8,72.6,30.19,East,94,6.9,6.9,87,0.00,CLR,,0.70,WeatherDisplay:10.37,2013-07-03 15:40:00,
2013-07-03 11:45:00,76.9,72.7,30.19,ESE,117,5.0,5.0,87,0.00,CLR,,0.70,WeatherDisplay:10.37,2013-07-03 15:45:00,
2013-07-03 11:50:00,77.1,72.9,30.19,SE,135,6.9,6.9,87,0.00,CLR,,0.70,WeatherDisplay:10.37,2013-07-03 15:50:00,
2013-07-03 11:52:00,77.2,72.7,30.19,ESE,118,4.6,4.6,86,0.00,CLR,,0.70,WeatherDisplay:10.37,2013-07-03 15:52:00,
2013-07-03 11:53:00,77.2,72.7,30.19,SE,141,4.6,4.6,86,0.00,CLR,,0.70,WeatherDisplay:10.37,2013-07-03 15:53:00,
2013-07-03 11:58:00,77.4,73.2,30.19,South,175,3.5,3.5,87,0.00,CLR,,0.70,WeatherDisplay:10.37,2013-07-03 15:58:00,
2013-07-03 12:03:00,77.4,72.5,30.19,ESE,118,11.5,11.5,85,0.00,CLR,,0.70,WeatherDisplay:10.37,2013-07-03 16:03:00,
2013-07-03 12:09:00,77.2,72.7,30.19,SE,136,5.8,5.8,86,0.00,CLR,,0.70,WeatherDisplay:10.37,2013-07-03 16:09:00,
2013-07-03 12:14:00,77.1,72.9,30.19,ESE,117,4.0,4.0,87,0.00,CLR,,0.70,WeatherDisplay:10.37,2013-07-03 16:14:00,
2013-07-03 12:19:00,77.1,72.9,30.18,South,172,9.2,9.2,87,0.00,CLR,,0.70,WeatherDisplay:10.37,2013-07-03 16:19:00,
2013-07-03 12:24:00,77.3,73.1,30.18,South,180,3.5,3.5,87,0.00,CLR,,0.70,WeatherDisplay:10.37,2013-07-03 16:24:00,
2013-07-03 12:29:00,77.4,72.9,30.18,SE,136,6.9,6.9,86,0.00,CLR,,0.70,WeatherDisplay:10.37,2013-07-03 16:29:00,
2013-07-03 12:35:00,77.5,72.6,30.18,South,186,9.2,9.2,85,0.00,CLR,,0.70,WeatherDisplay:10.37,2013-07-03 16:35:00,
2013-07-03 12:40:00,77.5,72.6,30.18,SW,226,3.5,3.5,85,0.00,CLR,,0.70,WeatherDisplay:10.37,2013-07-03 16:40:00,
2013-07-03 12:45:00,77.6,72.7,30.18,SSE,168,3.5,3.5,85,0.00,CLR,,0.70,WeatherDisplay:10.37,2013-07-03 16:45:00,
2013-07-03 12:50:00,77.7,72.8,30.18,SSE,162,5.8,5.8,85,0.00,CLR,,0.70,WeatherDisplay:10.37,2013-07-03 16:50:00,
2013-07-03 12:56:00,77.9,73.0,30.18,SE,130,0.0,0.0,85,0.00,CLR,,0.70,WeatherDisplay:10.37,2013-07-03 16:56:00,
2013-07-03 13:01:00,78.1,73.2,30.18,South,190,1.2,0.0,85,0.00,CLR,,0.70,WeatherDisplay:10.37,2013-07-03 17:01:00,
2013-07-03 13:06:00,78.2,73.0,30.18,SW,216,3.5,0.0,84,0.00,CLR,,0.70,WeatherDisplay:10.37,2013-07-03 17:06:00,
2013-07-03 13:12:00,78.4,73.5,30.18,SSE,167,4.0,4.0,85,0.00,CLR,,0.70,WeatherDisplay:10.37,2013-07-03 17:12:00,
2013-07-03 13:17:00,78.7,73.5,30.18,SSW,197,5.8,5.8,84,0.00,CLR,,0.70,WeatherDisplay:10.37,2013-07-03 17:17:00,
2013-07-03 13:22:00,79.2,73.9,30.18,SE,124,6.0,6.0,84,0.00,CLR,,0.70,WeatherDisplay:10.37,2013-07-03 17:22:00,
2013-07-03 13:27:00,79.6,74.0,30.18,ENE,58,3.5,3.5,83,0.00,CLR,,0.70,WeatherDisplay:10.37,2013-07-03 17:27:00,
2013-07-03 13:32:00,79.6,73.3,30.17,South,171,9.2,9.2,81,0.00,CLR,,0.70,WeatherDisplay:10.37,2013-07-03 17:32:00,
2013-07-03 13:37:00,79.7,73.3,30.17,South,189,5.8,5.8,81,0.00,CLR,,0.70,WeatherDisplay:10.37,2013-07-03 17:37:00,
2013-07-03 13:43:00,79.7,73.7,30.17,SW,217,2.0,2.0,82,0.00,CLR,,0.70,WeatherDisplay:10.37,2013-07-03 17:43:00,
2013-07-03 13:49:00,79.7,73.3,30.17,South,169,0.0,0.0,81,0.00,CLR,,0.70,WeatherDisplay:10.37,2013-07-03 17:49:00,
2013-07-03 13:54:00,79.8,73.4,30.17,WSW,244,8.1,8.1,81,0.00,CLR,,0.70,WeatherDisplay:10.37,2013-07-03 17:54:00,
2013-07-03 13:59:00,79.7,73.7,30.17,SE,128,0.0,0.0,82,0.00,CLR,,0.70,WeatherDisplay:10.37,2013-07-03 17:59:00,
2013-07-03 14:04:00,79.6,72.9,30.17,SSW,205,6.0,6.0,80,0.00,CLR,,0.70,WeatherDisplay:10.37,2013-07-03 18:04:00,
2013-07-03 14:09:00,79.3,73.0,30.16,South,171,4.0,4.0,81,0.00,CLR,,0.70,WeatherDisplay:10.37,2013-07-03 18:09:00,
2013-07-03 14:14:00,79.1,72.8,30.16,SSW,202,3.5,0.0,81,0.00,CLR,,0.71,WeatherDisplay:10.37,2013-07-03 18:14:00,
2013-07-03 14:20:00,78.9,72.6,30.17,South,186,4.6,4.6,81,0.01,RA,,0.71,WeatherDisplay:10.37,2013-07-03 18:20:00,
2013-07-03 14:25:00,78.7,72.7,30.17,SSE,154,3.5,3.5,82,0.01,RA,,0.71,WeatherDisplay:10.37,2013-07-03 18:25:00,
2013-07-03 14:30:00,78.7,73.1,30.17,SSE,149,5.0,5.0,83,0.01,CLR,,0.71,WeatherDisplay:10.37,2013-07-03 18:30:00,
2013-07-03 14:35:00,78.5,72.9,30.16,ESE,111,3.5,3.5,83,0.01,CLR,,0.71,WeatherDisplay:10.37,2013-07-03 18:35:00,
2013-07-03 14:40:00,78.3,73.1,30.16,SSE,165,0.0,0.0,84,0.01,CLR,,0.71,WeatherDisplay:10.37,2013-07-03 18:40:00,
2013-07-03 14:45:00,78.4,73.5,30.16,South,178,0.0,0.0,85,0.01,CLR,,0.71,WeatherDisplay:10.37,2013-07-03 18:45:00,
2013-07-03 14:50:00,78.5,73.3,30.17,SSE,151,3.5,3.5,84,0.01,CLR,,0.71,WeatherDisplay:10.37,2013-07-03 18:50:00,
2013-07-03 14:55:00,78.5,73.3,30.16,SE,131,3.5,3.5,84,0.01,CLR,,0.71,WeatherDisplay:10.37,2013-07-03 18:55:00,
2013-07-03 15:01:00,78.7,73.5,30.16,SE,144,5.0,5.0,84,0.01,CLR,,0.71,WeatherDisplay:10.37,2013-07-03 19:01:00,
2013-07-03 15:06:00,78.7,73.5,30.16,SSW,209,2.3,2.3,84,0.01,CLR,,0.71,WeatherDisplay:10.37,2013-07-03 19:06:00,
2013-07-03 15:11:00,78.7,73.5,30.15,SSE,161,3.5,3.5,84,0.01,CLR,,0.71,WeatherDisplay:10.37,2013-07-03 19:11:00,
2013-07-03 15:17:00,78.7,73.8,30.15,South,186,4.6,4.6,85,0.00,CLR,,0.71,WeatherDisplay:10.37,2013-07-03 19:17:00,
2013-07-03 15:22:00,78.7,73.8,30.15,South,182,3.5,3.5,85,0.00,CLR,,0.71,WeatherDisplay:10.37,2013-07-03 19:22:00,
2013-07-03 15:27:00,78.7,73.8,30.15,ESE,121,3.5,3.5,85,0.00,CLR,,0.71,WeatherDisplay:10.37,2013-07-03 19:27:00,
2013-07-03 15:33:00,78.9,73.7,30.15,SSW,198,5.8,5.8,84,0.00,CLR,,0.71,WeatherDisplay:10.37,2013-07-03 19:33:00,
2013-07-03 15:38:00,79.0,74.5,30.15,South,177,0.0,0.0,86,0.00,CLR,,0.71,WeatherDisplay:10.37,2013-07-03 19:38:00,
2013-07-03 15:44:00,79.0,73.7,30.15,ESE,117,0.0,0.0,84,0.00,CLR,,0.71,WeatherDisplay:10.37,2013-07-03 19:44:00,
2013-07-03 15:49:00,78.9,73.7,30.15,SSE,161,0.0,0.0,84,0.00,CLR,,0.71,WeatherDisplay:10.37,2013-07-03 19:49:00,
2013-07-03 15:54:00,78.9,73.7,30.15,SSE,161,0.0,0.0,84,0.00,CLR,,0.71,WeatherDisplay:10.37,2013-07-03 19:54:00,
2013-07-03 15:59:00,78.7,73.8,30.16,SE,132,3.5,3.5,85,0.00,CLR,,0.71,WeatherDisplay:10.37,2013-07-03 19:59:00,
2013-07-03 16:04:00,78.4,73.9,30.15,ESE,119,1.0,1.0,86,0.00,CLR,,0.71,WeatherDisplay:10.37,2013-07-03 20:04:00,
2013-07-03 16:10:00,78.2,73.7,30.15,SSE,153,0.0,0.0,86,0.00,CLR,,0.71,WeatherDisplay:10.37,2013-07-03 20:10:00,
2013-07-03 16:15:00,78.0,73.8,30.15,SSE,159,6.9,6.9,87,0.00,CLR,,0.71,WeatherDisplay:10.37,2013-07-03 20:15:00,
2013-07-03 16:20:00,77.9,74.1,30.15,South,183,3.5,3.5,88,0.00,CLR,,0.71,WeatherDisplay:10.37,2013-07-03 20:20:00,
2013-07-03 16:25:00,77.8,74.3,30.14,ESE,105,5.8,5.8,89,0.01,RA,,0.72,WeatherDisplay:10.37,2013-07-03 20:25:00,
2013-07-03 16:30:00,77.5,74.0,30.14,SE,142,6.9,6.9,89,0.01,RA,,0.72,WeatherDisplay:10.37,2013-07-03 20:30:00,
2013-07-03 16:35:00,77.4,73.9,30.15,SE,134,3.5,0.0,89,0.01,CLR,,0.72,WeatherDisplay:10.37,2013-07-03 20:35:00,
2013-07-03 16:41:00,77.2,73.7,30.15,SE,146,4.6,4.6,89,0.01,CLR,,0.72,WeatherDisplay:10.37,2013-07-03 20:41:00,
2013-07-03 16:46:00,77.1,73.9,30.15,ESE,119,3.0,3.0,90,0.01,CLR,,0.72,WeatherDisplay:10.37,2013-07-03 20:46:00,
2013-07-03 16:51:00,76.9,73.4,30.14,South,183,5.8,5.8,89,0.01,CLR,,0.72,WeatherDisplay:10.37,2013-07-03 20:51:00,
2013-07-03 16:57:00,76.9,73.4,30.14,ESE,115,3.0,3.0,89,0.01,CLR,,0.72,WeatherDisplay:10.37,2013-07-03 20:57:00,
2013-07-03 17:02:00,76.7,73.5,30.15,East,89,3.5,3.5,90,0.01,CLR,,0.72,WeatherDisplay:10.37,2013-07-03 21:02:00,
2013-07-03 17:07:00,76.7,73.5,30.15,SE,130,0.0,0.0,90,0.01,CLR,,0.72,WeatherDisplay:10.37,2013-07-03 21:07:00,
2013-07-03 17:14:00,76.7,73.2,30.14,SSW,201,0.0,0.0,89,0.01,CLR,,0.72,WeatherDisplay:10.37,2013-07-03 21:14:00,
2013-07-03 17:19:00,76.6,73.1,30.14,SW,216,2.3,0.0,89,0.01,CLR,,0.72,WeatherDisplay:10.37,2013-07-03 21:19:00,
2013-07-03 17:24:00,76.6,72.8,30.14,SSE,155,3.0,3.0,88,0.00,CLR,,0.72,WeatherDisplay:10.37,2013-07-03 21:24:00,
2013-07-03 17:29:00,76.6,72.8,30.14,SE,138,1.2,0.0,88,0.00,CLR,,0.72,WeatherDisplay:10.37,2013-07-03 21:29:00,
2013-07-03 17:34:00,76.6,73.1,30.13,SE,138,0.0,0.0,89,0.00,CLR,,0.72,WeatherDisplay:10.37,2013-07-03 21:34:00,
2013-07-03 17:39:00,76.6,73.1,30.13,SE,137,0.0,0.0,89,0.00,CLR,,0.72,WeatherDisplay:10.37,2013-07-03 21:39:00,
2013-07-03 17:44:00,76.6,73.1,30.13,SE,138,0.0,0.0,89,0.00,CLR,,0.72,WeatherDisplay:10.37,2013-07-03 21:44:00,
2013-07-03 17:49:00,76.6,73.1,30.13,SE,138,0.0,0.0,89,0.00,CLR,,0.72,WeatherDisplay:10.37,2013-07-03 21:49:00,
2013-07-03 17:55:00,76.6,73.1,30.13,SE,137,1.2,0.0,89,0.00,CLR,,0.72,WeatherDisplay:10.37,2013-07-03 21:55:00,
2013-07-03 18:00:00,76.6,73.1,30.13,SE,140,0.0,0.0,89,0.00,CLR,,0.72,WeatherDisplay:10.37,2013-07-03 22:00:00,
2013-07-03 18:05:00,76.5,73.0,30.14,SE,140,2.3,2.3,89,0.00,CLR,,0.72,WeatherDisplay:10.37,2013-07-03 22:05:00,
2013-07-03 18:10:00,76.5,73.3,30.14,East,88,0.0,0.0,90,0.00,CLR,,0.72,WeatherDisplay:10.37,2013-07-03 22:10:00,
2013-07-03 18:15:00,76.5,73.3,30.14,East,88,0.0,0.0,90,0.00,CLR,,0.72,WeatherDisplay:10.37,2013-07-03 22:15:00,
2013-07-03 18:20:00,76.4,73.2,30.14,East,88,0.0,0.0,90,0.01,RA,,0.73,WeatherDisplay:10.37,2013-07-03 22:20:00,
2013-07-03 18:26:00,76.3,73.5,30.14,East,88,0.0,0.0,91,0.01,RA,,0.73,WeatherDisplay:10.37,2013-07-03 22:26:00,
2013-07-03 18:32:00,76.3,73.5,30.15,East,88,0.0,0.0,91,0.01,CLR,,0.73,WeatherDisplay:10.37,2013-07-03 22:32:00,
2013-07-03 18:37:00,76.3,73.5,30.15,East,88,0.0,0.0,91,0.01,CLR,,0.73,WeatherDisplay:10.37,2013-07-03 22:37:00,
2013-07-03 18:42:00,76.3,73.5,30.15,SSE,159,0.0,0.0,91,0.01,CLR,,0.73,WeatherDisplay:10.37,2013-07-03 22:42:00,
2013-07-03 18:47:00,76.3,73.5,30.16,South,179,0.0,0.0,91,0.01,CLR,,0.73,WeatherDisplay:10.37,2013-07-03 22:47:00,
2013-07-03 18:52:00,76.1,73.3,30.16,SW,215,4.0,4.0,91,0.01,CLR,,0.73,WeatherDisplay:10.37,2013-07-03 22:52:00,
2013-07-03 18:57:00,76.0,73.2,30.16,South,186,3.5,3.5,91,0.01,CLR,,0.73,WeatherDisplay:10.37,2013-07-03 22:57:00,
2013-07-03 19:02:00,76.0,73.2,30.16,South,178,0.0,0.0,91,0.01,CLR,,0.73,WeatherDisplay:10.37,2013-07-03 23:02:00,
2013-07-03 19:08:00,75.9,73.4,30.16,South,176,3.5,0.0,92,0.01,CLR,,0.73,WeatherDisplay:10.37,2013-07-03 23:08:00,
2013-07-03 19:13:00,75.8,73.3,30.16,SE,130,3.5,3.5,92,0.01,CLR,,0.73,WeatherDisplay:10.37,2013-07-03 23:13:00,
2013-07-03 19:18:00,75.7,73.2,30.16,South,191,1.2,0.0,92,0.01,CLR,,0.73,WeatherDisplay:10.37,2013-07-03 23:18:00,
2013-07-03 19:23:00,75.6,73.1,30.16,SE,134,2.3,2.3,92,0.00,CLR,,0.73,WeatherDisplay:10.37,2013-07-03 23:23:00,
2013-07-03 19:28:00,75.4,72.6,30.16,SSW,205,2.0,2.0,91,0.00,CLR,,0.73,WeatherDisplay:10.37,2013-07-03 23:28:00,
2013-07-03 19:34:00,75.3,72.5,30.17,SSW,200,3.5,3.5,91,0.00,CLR,,0.73,WeatherDisplay:10.37,2013-07-03 23:34:00,
2013-07-03 19:39:00,75.2,72.4,30.17,SSW,205,1.2,1.2,91,0.00,CLR,,0.73,WeatherDisplay:10.37,2013-07-03 23:39:00,
2013-07-03 19:45:00,75.1,72.3,30.17,SSW,203,1.2,1.2,91,0.00,CLR,,0.73,WeatherDisplay:10.37,2013-07-03 23:45:00,
2013-07-03 19:50:00,75.0,72.2,30.17,SSW,204,0.0,0.0,91,0.00,CLR,,0.73,WeatherDisplay:10.37,2013-07-03 23:50:00,
2013-07-03 19:56:00,74.9,72.1,30.17,East,82,1.2,1.2,91,0.00,CLR,,0.73,WeatherDisplay:10.37,2013-07-03 23:56:00,
2013-07-03 20:01:00,74.8,72.3,30.17,SSE,159,3.5,3.5,92,0.00,CLR,,0.73,WeatherDisplay:10.37,2013-07-04 00:01:00,
2013-07-03 20:06:00,74.7,72.2,30.17,SE,136,0.0,0.0,92,0.00,CLR,,0.73,WeatherDisplay:10.37,2013-07-04 00:06:00,
2013-07-03 20:12:00,74.6,72.1,30.17,SE,136,3.5,0.0,92,0.00,CLR,,0.73,WeatherDisplay:10.37,2013-07-04 00:12:00,
2013-07-03 20:17:00,74.5,72.0,30.17,SE,136,0.0,0.4,92,0.00,CLR,,0.73,WeatherDisplay:10.37,2013-07-04 00:17:00,
2013-07-03 20:22:00,74.4,71.9,30.17,SE,136,0.0,0.0,92,0.00,CLR,,0.73,WeatherDisplay:10.37,2013-07-04 00:22:00,
2013-07-03 20:28:00,74.3,71.8,30.17,West,263,0.0,0.0,92,0.00,CLR,,0.73,WeatherDisplay:10.37,2013-07-04 00:28:00,
2013-07-03 20:33:00,74.2,71.7,30.17,WNW,290,0.0,0.0,92,0.00,CLR,,0.73,WeatherDisplay:10.37,2013-07-04 00:33:00,
2013-07-03 20:38:00,74.2,71.7,30.17,WNW,290,0.0,0.0,92,0.00,CLR,,0.73,WeatherDisplay:10.37,2013-07-04 00:38:00,
2013-07-03 20:43:00,74.1,71.6,30.17,WNW,290,0.0,0.0,92,0.00,CLR,,0.73,WeatherDisplay:10.37,2013-07-04 00:43:00,
2013-07-03 20:48:00,74.0,71.8,30.17,WNW,290,0.0,0.0,93,0.00,CLR,,0.73,WeatherDisplay:10.37,2013-07-04 00:48:00,
2013-07-03 20:54:00,73.9,71.7,30.17,WNW,290,0.0,0.0,93,0.00,CLR,,0.73,WeatherDisplay:10.37,2013-07-04 00:54:00,
2013-07-03 20:59:00,73.9,71.7,30.17,WNW,290,0.0,0.0,93,0.00,CLR,,0.73,WeatherDisplay:10.37,2013-07-04 00:59:00,
2013-07-03 21:05:00,73.9,71.7,30.17,WNW,290,0.0,0.0,93,0.00,CLR,,0.73,WeatherDisplay:10.37,2013-07-04 01:05:00,
2013-07-03 21:10:00,73.8,72.0,30.17,WNW,290,0.0,0.0,94,0.00,CLR,,0.73,WeatherDisplay:10.37,2013-07-04 01:10:00,
2013-07-03 21:15:00,73.7,71.9,30.17,WNW,290,0.0,0.0,94,0.00,CLR,,0.73,WeatherDisplay:10.37,2013-07-04 01:15:00,
2013-07-03 21:20:00,73.7,71.9,30.17,WNW,290,0.0,0.0,94,0.00,CLR,,0.73,WeatherDisplay:10.37,2013-07-04 01:20:00,
2013-07-03 21:25:00,73.7,71.9,30.17,WNW,290,0.0,0.0,94,0.00,CLR,,0.73,WeatherDisplay:10.37,2013-07-04 01:25:00,
2013-07-03 21:31:00,73.6,71.8,30.17,WNW,290,0.0,0.0,94,0.00,CLR,,0.73,WeatherDisplay:10.37,2013-07-04 01:31:00,
2013-07-03 21:36:00,73.6,71.8,30.17,WNW,290,0.0,0.0,94,0.00,CLR,,0.73,WeatherDisplay:10.37,2013-07-04 01:36:00,
2013-07-03 21:41:00,73.5,71.7,30.17,WNW,290,0.0,0.0,94,0.00,CLR,,0.73,WeatherDisplay:10.37,2013-07-04 01:41:00,
2013-07-03 21:46:00,73.5,71.7,30.17,WNW,290,0.0,0.0,94,0.00,CLR,,0.73,WeatherDisplay:10.37,2013-07-04 01:46:00,
2013-07-03 21:52:00,73.5,71.7,30.17,WNW,290,0.0,0.0,94,0.00,CLR,,0.73,WeatherDisplay:10.37,2013-07-04 01:52:00,
2013-07-03 21:57:00,73.4,71.6,30.18,WNW,290,0.0,0.0,94,0.00,CLR,,0.73,WeatherDisplay:10.37,2013-07-04 01:57:00,
2013-07-03 22:02:00,73.4,71.6,30.18,WNW,290,0.0,0.0,94,0.00,CLR,,0.73,WeatherDisplay:10.37,2013-07-04 02:02:00,
2013-07-03 22:07:00,73.4,71.6,30.18,WNW,290,0.0,0.0,94,0.00,CLR,,0.73,WeatherDisplay:10.37,2013-07-04 02:07:00,
2013-07-03 22:12:00,73.4,71.9,30.18,WNW,290,0.0,0.0,95,0.00,CLR,,0.73,WeatherDisplay:10.37,2013-07-04 02:12:00,
2013-07-03 22:17:00,73.3,71.8,30.18,WNW,290,0.0,0.0,95,0.00,CLR,,0.73,WeatherDisplay:10.37,2013-07-04 02:17:00,
2013-07-03 22:22:00,73.4,71.9,30.19,WNW,300,0.0,0.0,95,0.00,CLR,,0.73,WeatherDisplay:10.37,2013-07-04 02:22:00,
2013-07-03 22:27:00,73.3,71.8,30.19,SW,231,3.5,3.5,95,0.04,RA,,0.78,WeatherDisplay:10.37,2013-07-04 02:27:00,
2013-07-03 22:33:00,73.3,71.8,30.19,WSW,248,4.6,4.6,95,0.09,RA,,0.82,WeatherDisplay:10.37,2013-07-04 02:33:00,
2013-07-03 22:38:00,73.1,71.6,30.18,SW,235,3.5,3.5,95,0.16,RA,,0.90,WeatherDisplay:10.37,2013-07-04 02:38:00,
2013-07-03 22:43:00,73.0,71.5,30.19,SW,235,0.0,0.0,95,0.18,RA,,0.91,WeatherDisplay:10.37,2013-07-04 02:43:00,
2013-07-03 22:48:00,72.8,71.3,30.19,SW,235,0.0,0.0,95,0.18,RA,,0.91,WeatherDisplay:10.37,2013-07-04 02:48:00,
2013-07-03 22:53:00,72.7,71.2,30.19,SW,235,0.0,0.0,95,0.18,,,0.91,WeatherDisplay:10.37,2013-07-04 02:53:00,
2013-07-03 22:58:00,72.5,70.7,30.19,SW,234,0.0,0.0,94,0.18,CLR,,0.91,WeatherDisplay:10.37,2013-07-04 02:58:00,
2013-07-03 23:04:00,72.1,70.3,30.19,SW,235,0.0,0.0,94,0.18,CLR,,0.91,WeatherDisplay:10.37,2013-07-04 03:04:00,
2013-07-03 23:09:00,71.9,70.1,30.19,SW,234,0.0,0.0,94,0.18,CLR,,0.91,WeatherDisplay:10.37,2013-07-04 03:09:00,
2013-07-03 23:14:00,71.7,69.9,30.19,SW,235,0.0,0.0,94,0.18,CLR,,0.91,WeatherDisplay:10.37,2013-07-04 03:14:00,
2013-07-03 23:20:00,71.6,69.8,30.19,SW,235,0.0,0.0,94,0.18,CLR,,0.91,WeatherDisplay:10.37,2013-07-04 03:20:00,
2013-07-03 23:25:00,71.5,69.7,30.19,SW,235,0.0,0.0,94,0.17,CLR,,0.91,WeatherDisplay:10.37,2013-07-04 03:25:00,
2013-07-03 23:30:00,71.5,69.7,30.19,SW,235,0.0,0.0,94,0.12,CLR,,0.91,WeatherDisplay:10.37,2013-07-04 03:30:00,
2013-07-03 23:35:00,71.3,69.5,30.19,SW,234,0.0,0.0,94,0.06,CLR,,0.91,WeatherDisplay:10.37,2013-07-04 03:35:00,
2013-07-03 23:40:00,71.3,69.5,30.19,SW,234,0.0,0.0,94,0.01,CLR,,0.91,WeatherDisplay:10.37,2013-07-04 03:40:00,
2013-07-03 23:45:00,71.3,69.5,30.19,SW,235,0.0,0.0,94,0.00,CLR,,0.91,WeatherDisplay:10.37,2013-07-04 03:45:00,
2013-07-03 23:50:00,71.4,69.9,30.19,SW,235,2.3,0.0,95,0.00,CLR,,0.91,WeatherDisplay:10.37,2013-07-04 03:50:00,
2013-07-03 23:56:00,71.4,69.9,30.19,SW,235,0.0,0.0,95,0.00,CLR,,0.91,WeatherDisplay:10.37,2013-07-04 03:56:00,